User: anonymous   Login
Location: Unspecified
(0.0000°N, 0.0000°E)
Time: 12:38:35
(UTC+00:00)
Language:

AIST 2 - Orbit

View from above orbital plane
View from above orbital plane
View from above satellite
View from above satellite

Ground track
Ground track

The orbit data is extracted from the following two-line orbital elements,

1 39133U 13015D   21016.10159314  .00000174  00000-0  24531-4 0  9994
2 39133  64.8740 106.4931 0025362 225.0129 134.8947 15.05046780425242
Epoch (UTC): 16 January 2021 02:26:17
Eccentricity: 0.0025362
inclination: 64.8740°
perigee height: 534 km
apogee height: 569 km
right ascension of ascending node: 106.4931°
argument of perigee: 225.0129°
revolutions per day: 15.05046780
mean anomaly at epoch: 134.8947°
orbit number at epoch: 42524

The dashed part of the orbit path shows where the satellite is in the earth's shadow,  

DLR